Time,TemperatureF,DewpointF,PressureIn,WindDirection,WindDirectionDegrees,WindSpeedMPH,WindSpeedGustMPH,Humidity,HourlyPrecipIn,Conditions,Clouds,dailyrainin,SoftwareType,DateUTC
2013-08-17 00:02:00,65.6,59.6,30.11,SSE,166,0.0,0.0,81,0.00,,,0.00,Wunderground v.1.15,2013-08-17 05:02:00,
2013-08-17 00:08:00,65.3,59.3,30.11,SSE,166,0.0,0.0,81,0.00,,,0.00,Wunderground v.1.15,2013-08-17 05:08:00,
2013-08-17 00:14:00,64.9,59.3,30.11,SSE,166,0.0,0.0,82,0.00,,,0.00,Wunderground v.1.15,2013-08-17 05:14:00,
2013-08-17 00:19:00,64.7,59.4,30.11,SSE,166,0.0,0.0,83,0.00,,,0.00,Wunderground v.1.15,2013-08-17 05:19:00,
2013-08-17 00:25:00,64.4,59.5,30.11,SSE,166,0.0,0.0,84,0.00,,,0.00,Wunderground v.1.15,2013-08-17 05:25:00,
2013-08-17 00:31:00,64.1,59.5,30.11,SSE,166,0.0,0.0,85,0.00,,,0.00,Wunderground v.1.15,2013-08-17 05:31:00,
2013-08-17 00:37:00,63.8,59.2,30.11,SSE,166,0.0,0.0,85,0.00,,,0.00,Wunderground v.1.15,2013-08-17 05:37:00,
2013-08-17 00:42:00,63.6,59.3,30.11,SSE,166,0.0,0.0,86,0.00,,,0.00,Wunderground v.1.15,2013-08-17 05:42:00,
2013-08-17 00:48:00,63.4,59.1,30.11,SSE,166,0.0,0.0,86,0.00,,,0.00,Wunderground v.1.15,2013-08-17 05:48:00,
2013-08-17 00:54:00,63.2,59.3,30.11,SSE,166,0.0,0.0,87,0.00,,,0.00,Wunderground v.1.15,2013-08-17 05:54:00,
2013-08-17 01:00:00,63.0,59.4,30.11,SSE,166,0.0,0.0,88,0.00,,,0.00,Wunderground v.1.15,2013-08-17 06:00:00,
2013-08-17 01:06:00,62.8,59.2,30.11,SSE,166,0.0,0.0,88,0.00,,,0.00,Wunderground v.1.15,2013-08-17 06:06:00,
2013-08-17 01:12:00,62.6,59.3,30.11,SSE,166,0.0,0.0,89,0.00,,,0.00,Wunderground v.1.15,2013-08-17 06:12:00,
2013-08-17 01:18:00,62.4,59.1,30.11,SSE,166,0.0,0.0,89,0.00,,,0.00,Wunderground v.1.15,2013-08-17 06:18:00,
2013-08-17 01:23:00,62.3,59.0,30.11,SSE,166,0.0,0.0,89,0.00,,,0.00,Wunderground v.1.15,2013-08-17 06:23:00,
2013-08-17 01:29:00,62.2,59.2,30.11,SSE,166,0.0,0.0,90,0.00,,,0.00,Wunderground v.1.15,2013-08-17 06:29:00,
2013-08-17 01:35:00,62.1,59.1,30.11,SSE,166,0.0,0.0,90,0.00,,,0.00,Wunderground v.1.15,2013-08-17 06:35:00,
2013-08-17 01:41:00,61.9,58.9,30.11,SSE,166,0.0,1.0,90,0.00,,,0.00,Wunderground v.1.15,2013-08-17 06:41:00,
2013-08-17 01:47:00,61.9,58.9,30.11,SSE,166,0.0,2.0,90,0.00,,,0.00,Wunderground v.1.15,2013-08-17 06:47:00,
2013-08-17 01:53:00,61.8,58.8,30.11,SSE,166,0.0,0.0,90,0.00,,,0.00,Wunderground v.1.15,2013-08-17 06:53:00,
2013-08-17 01:59:00,61.7,58.7,30.11,SSE,166,0.0,0.0,90,0.00,,,0.00,Wunderground v.1.15,2013-08-17 06:59:00,
2013-08-17 02:05:00,61.5,58.5,30.11,SSE,166,0.0,0.0,90,0.00,,,0.00,Wunderground v.1.15,2013-08-17 07:05:00,
2013-08-17 02:10:00,61.3,58.3,30.11,SSE,166,0.0,1.0,90,0.00,,,0.00,Wunderground v.1.15,2013-08-17 07:10:00,
2013-08-17 02:15:00,61.2,58.6,30.11,SSE,166,0.0,1.0,91,0.00,,,0.00,Wunderground v.1.15,2013-08-17 07:15:00,
2013-08-17 02:20:00,61.1,58.5,30.11,SSE,166,0.0,0.0,91,0.00,,,0.00,Wunderground v.1.15,2013-08-17 07:20:00,
2013-08-17 02:25:00,60.9,58.3,30.11,SSE,166,0.0,1.0,91,0.00,,,0.00,Wunderground v.1.15,2013-08-17 07:25:00,
2013-08-17 02:30:00,60.8,58.2,30.11,SSE,166,0.0,0.0,91,0.00,,,0.00,Wunderground v.1.15,2013-08-17 07:30:00,
2013-08-17 02:35:00,60.6,58.0,30.11,SSE,166,0.0,0.0,91,0.00,,,0.00,Wunderground v.1.15,2013-08-17 07:35:00,
2013-08-17 02:40:00,60.5,58.2,30.11,SSE,166,0.0,0.0,92,0.00,,,0.00,Wunderground v.1.15,2013-08-17 07:40:00,
2013-08-17 02:45:00,60.4,58.1,30.11,SSE,166,0.0,0.0,92,0.00,,,0.00,Wunderground v.1.15,2013-08-17 07:45:00,
2013-08-17 02:50:00,60.3,58.0,30.11,SSE,166,0.0,1.0,92,0.00,,,0.00,Wunderground v.1.15,2013-08-17 07:50:00,
2013-08-17 02:55:00,60.3,58.0,30.11,SSE,166,0.0,1.0,92,0.00,,,0.00,Wunderground v.1.15,2013-08-17 07:55:00,
2013-08-17 03:00:00,60.2,57.9,30.11,SSE,166,0.0,1.0,92,0.00,,,0.00,Wunderground v.1.15,2013-08-17 08:00:00,
2013-08-17 03:05:00,60.2,57.9,30.12,SSE,166,0.0,1.0,92,0.00,,,0.00,Wunderground v.1.15,2013-08-17 08:05:00,
2013-08-17 03:10:00,60.2,57.9,30.12,SSE,166,0.0,0.0,92,0.00,,,0.00,Wunderground v.1.15,2013-08-17 08:10:00,
2013-08-17 03:15:00,60.0,57.7,30.12,SSE,166,0.0,0.0,92,0.00,,,0.00,Wunderground v.1.15,2013-08-17 08:15:00,
2013-08-17 03:20:00,59.9,57.6,30.12,SSE,166,0.0,0.0,92,0.00,,,0.00,Wunderground v.1.15,2013-08-17 08:20:00,
2013-08-17 03:25:00,59.8,57.8,30.12,SSE,166,0.0,0.0,93,0.00,,,0.00,Wunderground v.1.15,2013-08-17 08:25:00,
2013-08-17 03:30:00,59.6,57.6,30.12,SSE,166,0.0,0.0,93,0.00,,,0.00,Wunderground v.1.15,2013-08-17 08:30:00,
2013-08-17 03:35:00,59.5,57.5,30.12,SSE,166,0.0,0.0,93,0.00,,,0.00,Wunderground v.1.15,2013-08-17 08:35:00,
2013-08-17 03:40:00,59.4,57.4,30.12,SSE,166,0.0,0.0,93,0.00,,,0.00,Wunderground v.1.15,2013-08-17 08:40:00,
2013-08-17 03:45:00,59.3,57.3,30.12,SSE,166,0.0,0.0,93,0.00,,,0.00,Wunderground v.1.15,2013-08-17 08:45:00,
2013-08-17 03:50:00,59.3,57.6,30.12,SSE,166,0.0,0.0,94,0.00,,,0.00,Wunderground v.1.15,2013-08-17 08:50:00,
2013-08-17 03:55:00,59.2,57.5,30.12,SSE,166,0.0,0.0,94,0.00,,,0.00,Wunderground v.1.15,2013-08-17 08:55:00,
2013-08-17 04:00:00,59.2,57.5,30.13,SSE,166,0.0,1.0,94,0.00,,,0.00,Wunderground v.1.15,2013-08-17 09:00:00,
2013-08-17 04:05:00,59.1,57.4,30.13,SSE,166,0.0,1.0,94,0.00,,,0.00,Wunderground v.1.15,2013-08-17 09:05:00,
2013-08-17 04:10:00,59.0,57.3,30.13,SSE,166,0.0,1.0,94,0.00,,,0.00,Wunderground v.1.15,2013-08-17 09:10:00,
2013-08-17 04:15:00,58.9,57.2,30.13,SSE,166,0.0,1.0,94,0.00,,,0.00,Wunderground v.1.15,2013-08-17 09:15:00,
2013-08-17 04:20:00,58.8,57.1,30.13,SSE,166,0.0,0.0,94,0.00,,,0.00,Wunderground v.1.15,2013-08-17 09:20:00,
2013-08-17 04:25:00,58.7,57.0,30.13,SSE,166,0.0,0.0,94,0.00,,,0.00,Wunderground v.1.15,2013-08-17 09:25:00,
2013-08-17 04:30:00,58.6,56.9,30.13,SSE,166,0.0,0.0,94,0.00,,,0.00,Wunderground v.1.15,2013-08-17 09:30:00,
2013-08-17 04:35:00,58.5,56.8,30.13,SSE,166,0.0,1.0,94,0.00,,,0.00,Wunderground v.1.15,2013-08-17 09:35:00,
2013-08-17 04:40:00,58.4,56.7,30.12,SSE,166,0.0,0.0,94,0.00,,,0.00,Wunderground v.1.15,2013-08-17 09:40:00,
2013-08-17 04:45:00,58.3,56.6,30.13,SSE,166,0.0,0.0,94,0.00,,,0.00,Wunderground v.1.15,2013-08-17 09:45:00,
2013-08-17 04:50:00,58.3,56.9,30.13,SSE,166,0.0,0.0,95,0.00,,,0.00,Wunderground v.1.15,2013-08-17 09:50:00,
2013-08-17 04:55:00,58.2,56.5,30.13,SSE,166,0.0,0.0,94,0.00,,,0.00,Wunderground v.1.15,2013-08-17 09:55:00,
2013-08-17 05:00:00,58.0,56.3,30.12,SSE,166,0.0,0.0,94,0.00,,,0.00,Wunderground v.1.15,2013-08-17 10:00:00,
2013-08-17 05:05:00,58.0,56.6,30.12,SSE,166,0.0,0.0,95,0.00,,,0.00,Wunderground v.1.15,2013-08-17 10:05:00,
2013-08-17 05:10:00,58.0,56.6,30.12,SSE,166,0.0,0.0,95,0.00,,,0.00,Wunderground v.1.15,2013-08-17 10:10:00,
2013-08-17 05:15:00,57.9,56.5,30.12,SSE,166,0.0,0.0,95,0.00,,,0.00,Wunderground v.1.15,2013-08-17 10:15:00,
2013-08-17 05:20:00,57.9,56.5,30.12,SSE,166,0.0,0.0,95,0.00,,,0.00,Wunderground v.1.15,2013-08-17 10:20:00,
2013-08-17 05:25:00,57.9,56.8,30.12,SSE,166,0.0,0.0,96,0.00,,,0.00,Wunderground v.1.15,2013-08-17 10:25:00,
2013-08-17 05:30:00,57.9,56.8,30.12,SSE,166,0.0,0.0,96,0.00,,,0.00,Wunderground v.1.15,2013-08-17 10:30:00,
2013-08-17 05:35:00,57.8,56.7,30.12,SSE,166,0.0,0.0,96,0.00,,,0.00,Wunderground v.1.15,2013-08-17 10:35:00,
2013-08-17 05:40:00,57.8,56.7,30.13,SSE,166,0.0,0.0,96,0.00,,,0.00,Wunderground v.1.15,2013-08-17 10:40:00,
2013-08-17 05:45:00,57.8,56.4,30.12,SSE,166,0.0,1.0,95,0.00,,,0.00,Wunderground v.1.15,2013-08-17 10:45:00,
2013-08-17 05:50:00,57.7,56.3,30.12,SSE,166,0.0,0.0,95,0.00,,,0.00,Wunderground v.1.15,2013-08-17 10:50:00,
2013-08-17 05:55:00,57.5,56.1,30.12,SSE,166,0.0,0.0,95,0.00,,,0.00,Wunderground v.1.15,2013-08-17 10:55:00,
2013-08-17 06:00:00,57.4,56.0,30.12,SSE,166,0.0,0.0,95,0.00,,,0.00,Wunderground v.1.15,2013-08-17 11:00:00,
2013-08-17 06:05:00,57.4,56.3,30.12,SSE,166,0.0,0.0,96,0.00,,,0.00,Wunderground v.1.15,2013-08-17 11:05:00,
2013-08-17 06:10:00,57.3,56.2,30.12,SSE,166,0.0,0.0,96,0.00,,,0.00,Wunderground v.1.15,2013-08-17 11:10:00,
2013-08-17 06:15:00,57.2,56.1,30.13,SSE,166,0.0,0.0,96,0.00,,,0.00,Wunderground v.1.15,2013-08-17 11:15:00,
2013-08-17 06:20:00,57.3,56.2,30.13,SSE,166,0.0,0.0,96,0.00,,,0.00,Wunderground v.1.15,2013-08-17 11:20:00,
2013-08-17 06:25:00,57.3,56.2,30.13,SSE,166,0.0,0.0,96,0.00,,,0.00,Wunderground v.1.15,2013-08-17 11:25:00,
2013-08-17 06:31:00,57.3,56.2,30.13,SSE,166,0.0,0.0,96,0.00,,,0.00,Wunderground v.1.15,2013-08-17 11:31:00,
2013-08-17 06:35:00,57.2,56.1,30.13,SSE,166,0.0,0.0,96,0.00,,,0.00,Wunderground v.1.15,2013-08-17 11:35:00,
2013-08-17 06:40:00,57.1,56.0,30.13,SSE,166,0.0,0.0,96,0.00,,,0.00,Wunderground v.1.15,2013-08-17 11:40:00,
2013-08-17 06:45:00,57.0,55.9,30.13,SSE,166,0.0,0.0,96,0.00,,,0.00,Wunderground v.1.15,2013-08-17 11:45:00,
2013-08-17 06:51:00,57.0,55.9,30.14,SSE,166,0.0,0.0,96,0.00,,,0.00,Wunderground v.1.15,2013-08-17 11:51:00,
2013-08-17 06:56:00,56.9,55.8,30.14,SSE,166,0.0,0.0,96,0.00,,,0.00,Wunderground v.1.15,2013-08-17 11:56:00,
2013-08-17 07:01:00,56.8,55.7,30.14,SSE,166,0.0,0.0,96,0.00,,,0.00,Wunderground v.1.15,2013-08-17 12:01:00,
2013-08-17 07:06:00,56.7,55.6,30.14,SSE,166,0.0,0.0,96,0.00,,,0.00,Wunderground v.1.15,2013-08-17 12:06:00,
2013-08-17 07:11:00,56.7,55.6,30.14,SSE,166,0.0,0.0,96,0.00,,,0.00,Wunderground v.1.15,2013-08-17 12:11:00,
2013-08-17 07:16:00,56.8,56.0,30.14,SSE,166,0.0,0.0,97,0.00,,,0.00,Wunderground v.1.15,2013-08-17 12:16:00,
2013-08-17 07:21:00,56.9,56.1,30.14,SSE,166,0.0,0.0,97,0.00,,,0.00,Wunderground v.1.15,2013-08-17 12:21:00,
2013-08-17 07:26:00,57.0,56.2,30.14,SSE,166,0.0,0.0,97,0.00,,,0.00,Wunderground v.1.15,2013-08-17 12:26:00,
2013-08-17 07:31:00,57.1,56.3,30.14,SSE,166,0.0,0.0,97,0.00,,,0.00,Wunderground v.1.15,2013-08-17 12:31:00,
2013-08-17 07:36:00,57.3,56.5,30.14,SSE,166,0.0,0.0,97,0.00,,,0.00,Wunderground v.1.15,2013-08-17 12:36:00,
2013-08-17 07:41:00,57.5,56.7,30.14,SSE,166,0.0,0.0,97,0.00,,,0.00,Wunderground v.1.15,2013-08-17 12:41:00,
2013-08-17 07:46:00,57.8,57.0,30.14,SSE,166,0.0,0.0,97,0.00,,,0.00,Wunderground v.1.15,2013-08-17 12:46:00,
2013-08-17 07:51:00,58.2,57.4,30.14,SSE,166,0.0,0.0,97,0.00,,,0.00,Wunderground v.1.15,2013-08-17 12:51:00,
2013-08-17 07:56:00,58.6,58.0,30.14,SSE,166,0.0,0.0,98,0.00,,,0.00,Wunderground v.1.15,2013-08-17 12:56:00,
2013-08-17 08:01:00,59.0,58.4,30.14,SSE,166,0.0,0.0,98,0.00,,,0.00,Wunderground v.1.15,2013-08-17 13:01:00,
2013-08-17 08:06:00,59.5,58.9,30.14,SSE,166,0.0,1.0,98,0.00,,,0.00,Wunderground v.1.15,2013-08-17 13:06:00,
2013-08-17 08:11:00,60.2,59.6,30.14,SSE,166,0.0,1.0,98,0.00,,,0.00,Wunderground v.1.15,2013-08-17 13:11:00,
2013-08-17 08:16:00,60.9,60.3,30.14,SSE,166,0.0,1.0,98,0.00,,,0.00,Wunderground v.1.15,2013-08-17 13:16:00,
2013-08-17 08:21:00,61.7,61.1,30.14,SSE,166,0.0,0.0,98,0.00,,,0.00,Wunderground v.1.15,2013-08-17 13:21:00,
2013-08-17 08:26:00,62.4,61.8,30.15,SSE,166,0.0,1.0,98,0.00,,,0.00,Wunderground v.1.15,2013-08-17 13:26:00,
2013-08-17 08:31:00,63.4,61.3,30.15,SSE,166,1.0,1.0,93,0.00,,,0.00,Wunderground v.1.15,2013-08-17 13:31:00,
2013-08-17 08:36:00,64.4,60.1,30.15,SSE,166,1.0,1.0,86,0.00,,,0.00,Wunderground v.1.15,2013-08-17 13:36:00,
2013-08-17 08:41:00,65.3,59.7,30.15,SSE,166,1.0,3.0,82,0.00,,,0.00,Wunderground v.1.15,2013-08-17 13:41:00,
2013-08-17 08:46:00,66.1,59.7,30.15,SSE,166,1.0,3.0,80,0.00,,,0.00,Wunderground v.1.15,2013-08-17 13:46:00,
2013-08-17 08:51:00,66.6,59.9,30.14,ESE,120,3.0,3.0,79,0.00,,,0.00,Wunderground v.1.15,2013-08-17 13:51:00,
2013-08-17 08:56:00,67.1,59.6,30.15,ESE,117,1.0,3.0,77,0.00,,,0.00,Wunderground v.1.15,2013-08-17 13:56:00,
2013-08-17 09:01:00,67.9,60.1,30.15,ESE,117,1.0,2.0,76,0.00,,,0.00,Wunderground v.1.15,2013-08-17 14:01:00,
2013-08-17 09:06:00,68.5,60.3,30.14,ESE,117,0.0,2.0,75,0.00,,,0.00,Wunderground v.1.15,2013-08-17 14:06:00,
2013-08-17 09:11:00,69.5,60.5,30.15,East,94,2.0,2.0,73,0.00,,,0.00,Wunderground v.1.15,2013-08-17 14:11:00,
2013-08-17 09:16:00,70.1,59.9,30.14,East,94,1.0,2.0,70,0.00,,,0.00,Wunderground v.1.15,2013-08-17 14:16:00,
2013-08-17 09:21:00,70.3,60.1,30.14,East,95,0.0,1.0,70,0.00,,,0.00,Wunderground v.1.15,2013-08-17 14:21:00,
2013-08-17 09:26:00,71.2,60.5,30.14,East,95,1.0,2.0,69,0.00,,,0.00,Wunderground v.1.15,2013-08-17 14:26:00,
2013-08-17 09:31:00,71.5,60.0,30.14,SE,130,0.0,1.0,67,0.00,,,0.00,Wunderground v.1.15,2013-08-17 14:31:00,
2013-08-17 09:36:00,72.0,60.4,30.15,East,90,2.0,6.0,67,0.00,,,0.00,Wunderground v.1.15,2013-08-17 14:36:00,
2013-08-17 09:41:00,72.3,60.3,30.15,East,90,1.0,1.0,66,0.00,,,0.00,Wunderground v.1.15,2013-08-17 14:41:00,
2013-08-17 09:46:00,72.6,59.3,30.15,South,173,1.0,3.0,63,0.00,,,0.00,Wunderground v.1.15,2013-08-17 14:46:00,
2013-08-17 09:51:00,72.5,60.1,30.15,WSW,243,1.0,2.0,65,0.00,,,0.00,Wunderground v.1.15,2013-08-17 14:51:00,
2013-08-17 09:56:00,72.6,58.8,30.15,ESE,116,1.0,3.0,62,0.00,,,0.00,Wunderground v.1.15,2013-08-17 14:56:00,
2013-08-17 10:01:00,72.7,59.8,30.15,East,80,1.0,2.0,64,0.00,,,0.00,Wunderground v.1.15,2013-08-17 15:01:00,
2013-08-17 10:06:00,73.1,59.8,30.15,East,89,3.0,5.0,63,0.00,,,0.00,Wunderground v.1.15,2013-08-17 15:06:00,
2013-08-17 10:11:00,73.4,59.6,30.15,South,178,1.0,3.0,62,0.00,,,0.00,Wunderground v.1.15,2013-08-17 15:11:00,
2013-08-17 10:16:00,73.7,59.4,30.15,East,90,2.0,3.0,61,0.00,,,0.00,Wunderground v.1.15,2013-08-17 15:16:00,
2013-08-17 10:21:00,74.0,59.7,30.15,SE,141,1.0,3.0,61,0.00,,,0.00,Wunderground v.1.15,2013-08-17 15:21:00,
2013-08-17 10:26:00,74.2,59.4,30.15,ESE,123,1.0,3.0,60,0.00,,,0.00,Wunderground v.1.15,2013-08-17 15:26:00,
2013-08-17 10:31:00,74.4,58.7,30.15,East,84,1.0,3.0,58,0.00,,,0.00,Wunderground v.1.15,2013-08-17 15:31:00,
2013-08-17 10:36:00,74.6,57.9,30.15,SW,214,4.0,8.0,56,0.00,,,0.00,Wunderground v.1.15,2013-08-17 15:36:00,
2013-08-17 10:41:00,74.6,57.9,30.15,South,190,2.0,4.0,56,0.00,,,0.00,Wunderground v.1.15,2013-08-17 15:41:00,
2013-08-17 10:46:00,74.7,56.9,30.15,SE,134,2.0,6.0,54,0.00,,,0.00,Wunderground v.1.15,2013-08-17 15:46:00,
2013-08-17 10:51:00,74.7,56.4,30.15,SSE,163,2.0,4.0,53,0.00,,,0.00,Wunderground v.1.15,2013-08-17 15:51:00,
2013-08-17 10:56:00,74.5,56.2,30.15,SW,229,2.0,6.0,53,0.00,,,0.00,Wunderground v.1.15,2013-08-17 15:56:00,
2013-08-17 11:01:00,74.8,57.0,30.15,East,88,0.0,5.0,54,0.00,,,0.00,Wunderground v.1.15,2013-08-17 16:01:00,
2013-08-17 11:06:00,75.3,57.0,30.15,ESE,114,1.0,5.0,53,0.00,,,0.00,Wunderground v.1.15,2013-08-17 16:06:00,
2013-08-17 11:11:00,75.5,56.1,30.15,SSE,163,2.0,7.0,51,0.00,,,0.00,Wunderground v.1.15,2013-08-17 16:11:00,
2013-08-17 11:16:00,75.4,57.1,30.15,South,182,3.0,8.0,53,0.00,,,0.00,Wunderground v.1.15,2013-08-17 16:16:00,
2013-08-17 11:21:00,75.3,55.9,30.15,ENE,61,4.0,7.0,51,0.00,,,0.00,Wunderground v.1.15,2013-08-17 16:21:00,
2013-08-17 11:26:00,75.4,55.5,30.15,South,172,3.0,7.0,50,0.00,,,0.00,Wunderground v.1.15,2013-08-17 16:26:00,
2013-08-17 11:31:00,75.6,56.7,30.15,NE,39,2.0,4.0,52,0.00,,,0.00,Wunderground v.1.15,2013-08-17 16:31:00,
2013-08-17 11:36:00,76.1,56.7,30.14,SSW,200,2.0,5.0,51,0.00,,,0.00,Wunderground v.1.15,2013-08-17 16:36:00,
2013-08-17 11:41:00,76.4,57.5,30.15,ENE,63,4.0,5.0,52,0.00,,,0.00,Wunderground v.1.15,2013-08-17 16:41:00,
2013-08-17 11:46:00,76.0,56.0,30.15,SE,128,3.0,6.0,50,0.00,,,0.00,Wunderground v.1.15,2013-08-17 16:46:00,
2013-08-17 11:51:00,75.8,56.4,30.15,South,182,2.0,5.0,51,0.00,,,0.00,Wunderground v.1.15,2013-08-17 16:51:00,
2013-08-17 11:56:00,75.6,57.3,30.14,East,90,1.0,10.0,53,0.00,,,0.00,Wunderground v.1.15,2013-08-17 16:56:00,
2013-08-17 12:01:00,75.8,58.0,30.14,WSW,240,2.0,3.0,54,0.00,,,0.00,Wunderground v.1.15,2013-08-17 17:01:00,
2013-08-17 12:06:00,75.8,56.9,30.14,ESE,113,3.0,9.0,52,0.00,,,0.00,Wunderground v.1.15,2013-08-17 17:06:00,
2013-08-17 12:11:00,76.1,57.7,30.14,SE,144,4.0,8.0,53,0.00,,,0.00,Wunderground v.1.15,2013-08-17 17:11:00,
2013-08-17 12:16:00,76.1,57.2,30.13,ESE,113,1.0,8.0,52,0.00,,,0.00,Wunderground v.1.15,2013-08-17 17:16:00,
2013-08-17 12:21:00,75.9,57.0,30.13,ENE,74,4.0,5.0,52,0.00,,,0.00,Wunderground v.1.15,2013-08-17 17:21:00,
2013-08-17 12:26:00,76.4,57.5,30.13,ESE,123,1.0,5.0,52,0.00,,,0.00,Wunderground v.1.15,2013-08-17 17:26:00,
2013-08-17 12:31:00,77.3,58.3,30.13,ENE,77,4.0,6.0,52,0.00,,,0.00,Wunderground v.1.15,2013-08-17 17:31:00,
2013-08-17 12:36:00,77.6,56.9,30.13,ESE,121,3.0,7.0,49,0.00,,,0.00,Wunderground v.1.15,2013-08-17 17:36:00,
2013-08-17 12:41:00,77.2,56.6,30.13,SW,225,0.0,7.0,49,0.00,,,0.00,Wunderground v.1.15,2013-08-17 17:41:00,
2013-08-17 12:46:00,76.9,57.4,30.13,NE,42,3.0,7.0,51,0.00,,,0.00,Wunderground v.1.15,2013-08-17 17:46:00,
2013-08-17 12:51:00,77.0,58.6,30.12,South,180,1.0,5.0,53,0.00,,,0.00,Wunderground v.1.15,2013-08-17 17:51:00,
2013-08-17 12:56:00,77.1,57.0,30.12,SE,126,2.0,7.0,50,0.00,,,0.00,Wunderground v.1.15,2013-08-17 17:56:00,
2013-08-17 13:01:00,77.7,58.1,30.12,South,180,1.0,4.0,51,0.00,,,0.00,Wunderground v.1.15,2013-08-17 18:01:00,
2013-08-17 13:06:00,78.2,58.6,30.12,North,5,4.0,7.0,51,0.00,,,0.00,Wunderground v.1.15,2013-08-17 18:06:00,
2013-08-17 13:11:00,78.2,58.0,30.12,ENE,78,2.0,5.0,50,0.00,,,0.00,Wunderground v.1.15,2013-08-17 18:11:00,
2013-08-17 13:16:00,78.3,58.7,30.12,East,82,5.0,7.0,51,0.00,,,0.00,Wunderground v.1.15,2013-08-17 18:16:00,
2013-08-17 13:21:00,78.2,58.0,30.12,East,98,5.0,7.0,50,0.00,,,0.00,Wunderground v.1.15,2013-08-17 18:21:00,
2013-08-17 13:26:00,77.8,58.8,30.12,SE,137,1.0,7.0,52,0.00,,,0.00,Wunderground v.1.15,2013-08-17 18:26:00,
2013-08-17 13:31:00,77.7,57.6,30.12,SSE,153,2.0,5.0,50,0.00,,,0.00,Wunderground v.1.15,2013-08-17 18:31:00,
2013-08-17 13:36:00,77.0,57.5,30.11,NNE,26,2.0,8.0,51,0.00,,,0.00,Wunderground v.1.15,2013-08-17 18:36:00,
2013-08-17 13:41:00,76.6,58.2,30.11,SSE,162,2.0,5.0,53,0.00,,,0.00,Wunderground v.1.15,2013-08-17 18:41:00,
2013-08-17 13:46:00,76.5,57.6,30.11,South,175,2.0,6.0,52,0.00,,,0.00,Wunderground v.1.15,2013-08-17 18:46:00,
2013-08-17 13:51:00,77.0,58.0,30.11,SE,140,2.0,6.0,52,0.00,,,0.00,Wunderground v.1.15,2013-08-17 18:51:00,
2013-08-17 13:56:00,77.6,58.0,30.11,North,355,4.0,9.0,51,0.00,,,0.00,Wunderground v.1.15,2013-08-17 18:56:00,
2013-08-17 14:01:00,78.3,58.1,30.11,NE,54,3.0,7.0,50,0.00,,,0.00,Wunderground v.1.15,2013-08-17 19:01:00,
2013-08-17 14:06:00,78.2,56.9,30.11,SE,144,4.0,7.0,48,0.00,,,0.00,Wunderground v.1.15,2013-08-17 19:06:00,
2013-08-17 14:11:00,77.6,56.9,30.11,East,79,2.0,6.0,49,0.00,,,0.00,Wunderground v.1.15,2013-08-17 19:11:00,
2013-08-17 14:16:00,77.1,56.5,30.10,East,95,3.0,6.0,49,0.00,,,0.00,Wunderground v.1.15,2013-08-17 19:16:00,
2013-08-17 14:21:00,77.2,57.7,30.10,East,86,5.0,10.0,51,0.00,,,0.00,Wunderground v.1.15,2013-08-17 19:21:00,
2013-08-17 14:26:00,77.6,58.0,30.10,SE,142,1.0,10.0,51,0.00,,,0.00,Wunderground v.1.15,2013-08-17 19:26:00,
2013-08-17 14:31:00,78.0,56.7,30.10,East,90,2.0,3.0,48,0.00,,,0.00,Wunderground v.1.15,2013-08-17 19:31:00,
2013-08-17 14:36:00,78.4,57.1,30.10,East,79,6.0,8.0,48,0.00,,,0.00,Wunderground v.1.15,2013-08-17 19:36:00,
2013-08-17 14:41:00,78.4,57.1,30.10,ESE,123,2.0,4.0,48,0.00,,,0.00,Wunderground v.1.15,2013-08-17 19:41:00,
2013-08-17 14:46:00,78.6,56.1,30.10,ENE,73,2.0,8.0,46,0.00,,,0.00,Wunderground v.1.15,2013-08-17 19:46:00,
2013-08-17 14:51:00,78.7,56.2,30.09,South,188,2.0,6.0,46,0.00,,,0.00,Wunderground v.1.15,2013-08-17 19:51:00,
2013-08-17 14:56:00,79.0,56.5,30.09,SSE,159,2.0,7.0,46,0.00,,,0.00,Wunderground v.1.15,2013-08-17 19:56:00,
2013-08-17 15:01:00,78.4,56.5,30.09,South,182,1.0,5.0,47,0.00,,,0.00,Wunderground v.1.15,2013-08-17 20:01:00,
2013-08-17 15:06:00,78.3,55.8,30.09,SSE,168,3.0,5.0,46,0.00,,,0.00,Wunderground v.1.15,2013-08-17 20:06:00,
2013-08-17 15:11:00,78.2,56.3,30.09,SW,225,3.0,4.0,47,0.00,,,0.00,Wunderground v.1.15,2013-08-17 20:11:00,
2013-08-17 15:16:00,78.4,57.1,30.09,WSW,239,1.0,5.0,48,0.00,,,0.00,Wunderground v.1.15,2013-08-17 20:16:00,
2013-08-17 15:21:00,78.2,56.3,30.09,South,171,2.0,5.0,47,0.00,,,0.00,Wunderground v.1.15,2013-08-17 20:21:00,
2013-08-17 15:26:00,77.8,55.4,30.09,SE,146,5.0,7.0,46,0.00,,,0.00,Wunderground v.1.15,2013-08-17 20:26:00,
2013-08-17 15:31:00,78.0,57.9,30.08,East,88,3.0,5.0,50,0.00,,,0.00,Wunderground v.1.15,2013-08-17 20:31:00,
2013-08-17 15:36:00,78.6,56.7,30.08,South,172,2.0,5.0,47,0.00,,,0.00,Wunderground v.1.15,2013-08-17 20:36:00,
2013-08-17 15:41:00,78.8,56.3,30.08,ESE,119,1.0,4.0,46,0.00,,,0.00,Wunderground v.1.15,2013-08-17 20:41:00,
2013-08-17 15:46:00,78.5,56.6,30.08,East,88,2.0,5.0,47,0.00,,,0.00,Wunderground v.1.15,2013-08-17 20:46:00,
2013-08-17 15:51:00,78.3,56.4,30.07,East,88,3.0,4.0,47,0.00,,,0.00,Wunderground v.1.15,2013-08-17 20:51:00,
2013-08-17 15:56:00,78.8,56.3,30.07,ESE,108,1.0,4.0,46,0.00,,,0.00,Wunderground v.1.15,2013-08-17 20:56:00,
2013-08-17 16:01:00,79.3,56.7,30.07,SSW,205,2.0,4.0,46,0.00,,,0.00,Wunderground v.1.15,2013-08-17 21:01:00,
2013-08-17 16:06:00,79.6,56.4,30.07,SE,136,1.0,8.0,45,0.00,,,0.00,Wunderground v.1.15,2013-08-17 21:06:00,
2013-08-17 16:11:00,79.5,56.3,30.07,ESE,113,3.0,8.0,45,0.00,,,0.00,Wunderground v.1.15,2013-08-17 21:11:00,
2013-08-17 16:16:00,79.2,57.8,30.07,South,173,3.0,8.0,48,0.00,,,0.00,Wunderground v.1.15,2013-08-17 21:16:00,
2013-08-17 16:21:00,79.0,56.5,30.07,SSE,163,3.0,4.0,46,0.00,,,0.00,Wunderground v.1.15,2013-08-17 21:21:00,
2013-08-17 16:26:00,78.8,55.0,30.07,East,87,3.0,6.0,44,0.00,,,0.00,Wunderground v.1.15,2013-08-17 21:26:00,
2013-08-17 16:31:00,78.9,55.8,30.07,East,82,1.0,4.0,45,0.00,,,0.00,Wunderground v.1.15,2013-08-17 21:31:00,
2013-08-17 16:36:00,79.4,56.8,30.07,SE,140,4.0,6.0,46,0.00,,,0.00,Wunderground v.1.15,2013-08-17 21:36:00,
2013-08-17 16:41:00,79.5,58.1,30.07,East,88,3.0,3.0,48,0.00,,,0.00,Wunderground v.1.15,2013-08-17 21:41:00,
2013-08-17 16:46:00,78.8,56.9,30.07,SSE,155,2.0,6.0,47,0.00,,,0.00,Wunderground v.1.15,2013-08-17 21:46:00,
2013-08-17 16:51:00,78.2,56.3,30.07,East,86,0.0,5.0,47,0.00,,,0.00,Wunderground v.1.15,2013-08-17 21:51:00,
2013-08-17 16:56:00,78.5,56.6,30.07,ESE,105,5.0,5.0,47,0.00,,,0.00,Wunderground v.1.15,2013-08-17 21:56:00,
2013-08-17 17:01:00,78.6,55.5,30.07,SSW,202,3.0,8.0,45,0.00,,,0.00,Wunderground v.1.15,2013-08-17 22:01:00,
2013-08-17 17:06:00,78.9,57.0,30.07,NE,46,1.0,8.0,47,0.00,,,0.00,Wunderground v.1.15,2013-08-17 22:06:00,
2013-08-17 17:11:00,79.4,56.2,30.07,East,87,1.0,3.0,45,0.00,,,0.00,Wunderground v.1.15,2013-08-17 22:11:00,
2013-08-17 17:16:00,79.6,57.0,30.07,ESE,103,1.0,5.0,46,0.00,,,0.00,Wunderground v.1.15,2013-08-17 22:16:00,
2013-08-17 17:21:00,79.8,57.2,30.07,NE,35,1.0,5.0,46,0.00,,,0.00,Wunderground v.1.15,2013-08-17 22:21:00,
2013-08-17 17:26:00,80.0,57.4,30.06,ENE,67,1.0,6.0,46,0.00,,,0.00,Wunderground v.1.15,2013-08-17 22:26:00,
2013-08-17 17:31:00,79.3,56.7,30.06,South,185,1.0,7.0,46,0.00,,,0.00,Wunderground v.1.15,2013-08-17 22:31:00,
2013-08-17 17:36:00,78.6,57.3,30.06,East,88,1.0,7.0,48,0.00,,,0.00,Wunderground v.1.15,2013-08-17 22:36:00,
2013-08-17 17:41:00,78.3,57.0,30.06,ENE,74,1.0,2.0,48,0.00,,,0.00,Wunderground v.1.15,2013-08-17 22:41:00,
2013-08-17 17:46:00,78.2,56.9,30.06,NE,38,2.0,9.0,48,0.00,,,0.00,Wunderground v.1.15,2013-08-17 22:46:00,
2013-08-17 17:51:00,77.9,57.2,30.06,SE,125,3.0,5.0,49,0.00,,,0.00,Wunderground v.1.15,2013-08-17 22:51:00,
2013-08-17 17:56:00,77.2,56.0,30.06,SSW,196,1.0,6.0,48,0.00,,,0.00,Wunderground v.1.15,2013-08-17 22:56:00,
2013-08-17 18:01:00,76.8,56.8,30.06,ESE,117,0.0,3.0,50,0.00,,,0.00,Wunderground v.1.15,2013-08-17 23:01:00,
2013-08-17 18:06:00,76.4,56.4,30.06,ESE,117,0.0,3.0,50,0.00,,,0.00,Wunderground v.1.15,2013-08-17 23:06:00,
2013-08-17 18:11:00,76.2,56.2,30.06,ESE,119,1.0,2.0,50,0.00,,,0.00,Wunderground v.1.15,2013-08-17 23:11:00,
2013-08-17 18:16:00,76.1,56.7,30.06,ESE,119,0.0,2.0,51,0.00,,,0.00,Wunderground v.1.15,2013-08-17 23:16:00,
2013-08-17 18:21:00,76.3,56.3,30.06,ESE,112,1.0,2.0,50,0.00,,,0.00,Wunderground v.1.15,2013-08-17 23:21:00,
2013-08-17 18:26:00,76.5,55.9,30.05,SSW,196,2.0,3.0,49,0.00,,,0.00,Wunderground v.1.15,2013-08-17 23:26:00,
2013-08-17 18:31:00,76.6,56.6,30.05,ENE,76,0.0,3.0,50,0.00,,,0.00,Wunderground v.1.15,2013-08-17 23:31:00,
2013-08-17 18:36:00,76.7,56.1,30.05,SSE,157,1.0,5.0,49,0.00,,,0.00,Wunderground v.1.15,2013-08-17 23:36:00,
2013-08-17 18:41:00,76.7,56.7,30.05,South,181,1.0,5.0,50,0.00,,,0.00,Wunderground v.1.15,2013-08-17 23:41:00,
2013-08-17 18:46:00,76.8,57.3,30.05,East,84,1.0,5.0,51,0.00,,,0.00,Wunderground v.1.15,2013-08-17 23:46:00,
2013-08-17 18:51:00,76.7,56.7,30.06,ESE,119,1.0,6.0,50,0.00,,,0.00,Wunderground v.1.15,2013-08-17 23:51:00,
2013-08-17 18:56:00,76.5,56.5,30.05,ESE,115,1.0,6.0,50,0.00,,,0.00,Wunderground v.1.15,2013-08-17 23:56:00,
2013-08-17 19:01:00,76.2,56.7,30.06,ESE,122,1.0,7.0,51,0.00,,,0.00,Wunderground v.1.15,2013-08-18 00:01:00,
2013-08-17 19:06:00,76.0,56.6,30.05,South,190,1.0,7.0,51,0.00,,,0.00,Wunderground v.1.15,2013-08-18 00:06:00,
2013-08-17 19:11:00,75.7,56.8,30.05,East,97,0.0,4.0,52,0.00,,,0.00,Wunderground v.1.15,2013-08-18 00:11:00,
2013-08-17 19:16:00,75.5,56.6,30.05,East,91,1.0,4.0,52,0.00,,,0.00,Wunderground v.1.15,2013-08-18 00:16:00,
2013-08-17 19:21:00,75.2,56.9,30.05,East,91,0.0,2.0,53,0.00,,,0.00,Wunderground v.1.15,2013-08-18 00:21:00,
2013-08-17 19:26:00,75.0,57.2,30.05,East,91,1.0,2.0,54,0.00,,,0.00,Wunderground v.1.15,2013-08-18 00:26:00,
2013-08-17 19:31:00,74.7,57.5,30.05,East,91,0.0,1.0,55,0.00,,,0.00,Wunderground v.1.15,2013-08-18 00:31:00,
2013-08-17 19:36:00,74.5,57.3,30.05,East,91,0.0,2.0,55,0.00,,,0.00,Wunderground v.1.15,2013-08-18 00:36:00,
2013-08-17 19:41:00,74.3,57.6,30.05,East,91,1.0,1.0,56,0.00,,,0.00,Wunderground v.1.15,2013-08-18 00:41:00,
2013-08-17 19:47:00,74.1,57.4,30.05,East,91,0.0,1.0,56,0.00,,,0.00,Wunderground v.1.15,2013-08-18 00:47:00,
2013-08-17 19:51:00,73.8,57.6,30.05,East,91,0.0,1.0,57,0.00,,,0.00,Wunderground v.1.15,2013-08-18 00:51:00,
2013-08-17 19:56:00,73.6,57.9,30.05,East,91,0.0,1.0,58,0.00,,,0.00,Wunderground v.1.15,2013-08-18 00:56:00,
2013-08-17 20:01:00,73.3,57.6,30.05,East,91,0.0,0.0,58,0.00,,,0.00,Wunderground v.1.15,2013-08-18 01:01:00,
2013-08-17 20:06:00,73.0,57.3,30.05,East,91,0.0,1.0,58,0.00,,,0.00,Wunderground v.1.15,2013-08-18 01:06:00,
2013-08-17 20:11:00,72.8,57.6,30.05,East,91,0.0,0.0,59,0.00,,,0.00,Wunderground v.1.15,2013-08-18 01:11:00,
2013-08-17 20:16:00,72.4,57.7,30.05,East,91,0.0,0.0,60,0.00,,,0.00,Wunderground v.1.15,2013-08-18 01:16:00,
2013-08-17 20:22:00,72.1,57.9,30.05,East,91,0.0,0.0,61,0.00,,,0.00,Wunderground v.1.15,2013-08-18 01:22:00,
2013-08-17 20:26:00,71.7,58.0,30.05,East,91,0.0,0.0,62,0.00,,,0.00,Wunderground v.1.15,2013-08-18 01:26:00,
2013-08-17 20:31:00,71.3,58.1,30.05,East,91,0.0,0.0,63,0.00,,,0.00,Wunderground v.1.15,2013-08-18 01:31:00,
2013-08-17 20:36:00,70.9,58.1,30.05,East,91,0.0,1.0,64,0.00,,,0.00,Wunderground v.1.15,2013-08-18 01:36:00,
2013-08-17 20:42:00,70.5,58.2,30.05,East,91,0.0,0.0,65,0.00,,,0.00,Wunderground v.1.15,2013-08-18 01:42:00,
2013-08-17 20:46:00,70.2,58.3,30.05,East,91,0.0,0.0,66,0.00,,,0.00,Wunderground v.1.15,2013-08-18 01:46:00,
2013-08-17 20:51:00,69.8,58.3,30.05,East,91,0.0,0.0,67,0.00,,,0.00,Wunderground v.1.15,2013-08-18 01:51:00,
2013-08-17 20:56:00,69.5,58.5,30.05,East,91,0.0,0.0,68,0.00,,,0.00,Wunderground v.1.15,2013-08-18 01:56:00,
2013-08-17 21:01:00,69.1,58.9,30.05,East,91,0.0,1.0,70,0.00,,,0.00,Wunderground v.1.15,2013-08-18 02:01:00,
2013-08-17 21:06:00,68.8,58.6,30.06,East,91,0.0,1.0,70,0.00,,,0.00,Wunderground v.1.15,2013-08-18 02:06:00,
2013-08-17 21:11:00,68.6,58.8,30.06,East,91,0.0,0.0,71,0.00,,,0.00,Wunderground v.1.15,2013-08-18 02:11:00,
2013-08-17 21:16:00,68.3,58.5,30.06,East,91,0.0,0.0,71,0.00,,,0.00,Wunderground v.1.15,2013-08-18 02:16:00,
2013-08-17 21:21:00,68.1,58.3,30.07,East,91,0.0,0.0,71,0.00,,,0.00,Wunderground v.1.15,2013-08-18 02:21:00,
2013-08-17 21:26:00,68.0,58.6,30.07,East,91,0.0,0.0,72,0.00,,,0.00,Wunderground v.1.15,2013-08-18 02:26:00,
2013-08-17 21:31:00,67.8,58.8,30.07,East,91,0.0,0.0,73,0.00,,,0.00,Wunderground v.1.15,2013-08-18 02:31:00,
2013-08-17 21:36:00,67.6,58.6,30.07,East,91,0.0,1.0,73,0.00,,,0.00,Wunderground v.1.15,2013-08-18 02:36:00,
2013-08-17 21:42:00,67.4,58.4,30.07,East,91,0.0,0.0,73,0.00,,,0.00,Wunderground v.1.15,2013-08-18 02:42:00,
2013-08-17 21:47:00,67.2,58.2,30.07,East,91,0.0,0.0,73,0.00,,,0.00,Wunderground v.1.15,2013-08-18 02:47:00,
2013-08-17 21:52:00,67.0,58.4,30.07,East,91,0.0,0.0,74,0.00,,,0.00,Wunderground v.1.15,2013-08-18 02:52:00,
2013-08-17 21:57:00,66.8,58.6,30.07,East,91,0.0,0.0,75,0.00,,,0.00,Wunderground v.1.15,2013-08-18 02:57:00,
2013-08-17 22:02:00,66.5,58.7,30.08,East,91,0.0,0.0,76,0.00,,,0.00,Wunderground v.1.15,2013-08-18 03:02:00,
2013-08-17 22:07:00,66.3,58.5,30.08,East,91,0.0,1.0,76,0.00,,,0.00,Wunderground v.1.15,2013-08-18 03:07:00,
2013-08-17 22:12:00,66.1,58.7,30.08,East,91,0.0,0.0,77,0.00,,,0.00,Wunderground v.1.15,2013-08-18 03:12:00,
2013-08-17 22:17:00,65.9,58.5,30.08,East,91,0.0,0.0,77,0.00,,,0.00,Wunderground v.1.15,2013-08-18 03:17:00,
2013-08-17 22:22:00,65.6,58.6,30.08,East,91,0.0,0.0,78,0.00,,,0.00,Wunderground v.1.15,2013-08-18 03:22:00,
2013-08-17 22:27:00,65.4,58.4,30.08,East,91,0.0,0.0,78,0.00,,,0.00,Wunderground v.1.15,2013-08-18 03:27:00,
2013-08-17 22:32:00,65.3,58.3,30.08,East,91,0.0,0.0,78,0.00,,,0.00,Wunderground v.1.15,2013-08-18 03:32:00,
2013-08-17 22:37:00,65.1,58.4,30.08,East,91,0.0,0.0,79,0.00,,,0.00,Wunderground v.1.15,2013-08-18 03:37:00,
2013-08-17 22:42:00,65.0,58.7,30.08,East,91,0.0,0.0,80,0.00,,,0.00,Wunderground v.1.15,2013-08-18 03:42:00,
2013-08-17 22:47:00,65.0,58.7,30.08,East,91,0.0,0.0,80,0.00,,,0.00,Wunderground v.1.15,2013-08-18 03:47:00,
2013-08-17 22:52:00,64.8,58.8,30.08,East,91,0.0,0.0,81,0.00,,,0.00,Wunderground v.1.15,2013-08-18 03:52:00,
2013-08-17 22:57:00,64.6,58.6,30.08,East,91,0.0,0.0,81,0.00,,,0.00,Wunderground v.1.15,2013-08-18 03:57:00,
2013-08-17 23:01:00,64.4,58.4,30.08,East,91,0.0,0.0,81,0.00,,,0.00,Wunderground v.1.15,2013-08-18 04:01:00,
2013-08-17 23:06:00,64.2,58.6,30.08,East,91,0.0,0.0,82,0.00,,,0.00,Wunderground v.1.15,2013-08-18 04:06:00,
2013-08-17 23:11:00,64.0,58.7,30.08,East,91,0.0,0.0,83,0.00,,,0.00,Wunderground v.1.15,2013-08-18 04:11:00,
2013-08-17 23:16:00,63.8,58.5,30.08,East,91,0.0,0.0,83,0.00,,,0.00,Wunderground v.1.15,2013-08-18 04:16:00,
2013-08-17 23:21:00,63.6,58.7,30.08,East,91,0.0,0.0,84,0.00,,,0.00,Wunderground v.1.15,2013-08-18 04:21:00,
2013-08-17 23:26:00,63.4,58.5,30.08,East,91,0.0,0.0,84,0.00,,,0.00,Wunderground v.1.15,2013-08-18 04:26:00,
2013-08-17 23:31:00,63.3,58.4,30.08,East,91,0.0,0.0,84,0.00,,,0.00,Wunderground v.1.15,2013-08-18 04:31:00,
2013-08-17 23:36:00,63.2,58.3,30.09,East,91,0.0,0.0,84,0.00,,,0.00,Wunderground v.1.15,2013-08-18 04:36:00,
2013-08-17 23:41:00,63.1,58.5,30.08,East,91,0.0,0.0,85,0.00,,,0.00,Wunderground v.1.15,2013-08-18 04:41:00,
2013-08-17 23:46:00,63.0,58.4,30.08,East,91,0.0,0.0,85,0.00,,,0.00,Wunderground v.1.15,2013-08-18 04:46:00,
2013-08-17 23:51:00,62.9,58.6,30.08,East,91,0.0,0.0,86,0.00,,,0.00,Wunderground v.1.15,2013-08-18 04:51:00,
2013-08-17 23:56:00,62.8,58.2,30.09,East,91,0.0,0.0,85,0.00,,,0.00,Wunderground v.1.15,2013-08-18 04:56:00,